AAL2273 KOKC-KCLT

Flight info

Callsign AAL2273
Flight time 1h 44m
Altitude 37000
Route FUNNL3 PHARA IGLOO TAZZA FILPZ4
Aircraft A319/M-SDE3FGHIRWY/LB1

Departure

Time 2026-05-08 19:30
Airport OKC Will Rogers World Airport (KOKC)

Arrival

Time 2026-05-08 21:15
Airport Charlotte Douglas International Airport (KCLT)
Time Latitude Longitude Altitude Speed Heading
2026-05-08 19:09 35.39571 -97.59898 1299 ft 0 kts 181°
2026-05-08 19:18 35.39585 -97.59898 1299 ft 4 kts 181°
2026-05-08 19:18 35.39611 -97.59895 1300 ft 4 kts 202°
2026-05-08 19:18 35.39629 -97.59877 1300 ft 4 kts 253°
2026-05-08 19:18 35.39632 -97.59856 1301 ft 1 kts 270°
2026-05-08 19:19 35.39632 -97.59852 1301 ft 0 kts 270°
2026-05-08 19:22 35.39632 -97.59861 1301 ft 6 kts 270°
2026-05-08 19:22 35.39631 -97.59974 1297 ft 17 kts 269°
2026-05-08 19:22 35.39593 -97.60116 1293 ft 19 kts 246°
2026-05-08 19:23 35.39523 -97.60207 1293 ft 13 kts 167°
2026-05-08 19:23 35.39453 -97.60135 1294 ft 13 kts 136°
2026-05-08 19:23 35.39394 -97.60064 1296 ft 11 kts 135°
2026-05-08 19:23 35.39339 -97.60000 1298 ft 12 kts 136°
2026-05-08 19:24 35.39268 -97.59920 1297 ft 16 kts 137°
2026-05-08 19:24 35.39217 -97.59798 1298 ft 17 kts 92°
2026-05-08 19:24 35.39218 -97.59653 1297 ft 18 kts 89°
2026-05-08 19:24 35.39218 -97.59498 1297 ft 19 kts 90°
2026-05-08 19:25 35.39219 -97.59336 1297 ft 20 kts 89°
2026-05-08 19:25 35.39218 -97.59164 1295 ft 21 kts 91°
2026-05-08 19:25 35.39263 -97.59063 1296 ft 14 kts 356°
2026-05-08 19:25 35.39356 -97.59063 1298 ft 15 kts 360°
2026-05-08 19:26 35.39492 -97.59063 1297 ft 22 kts
2026-05-08 19:26 35.39646 -97.59062 1297 ft 22 kts
2026-05-08 19:26 35.39792 -97.59063 1300 ft 21 kts 360°
2026-05-08 19:26 35.39939 -97.59063 1297 ft 22 kts
2026-05-08 19:27 35.40091 -97.59063 1298 ft 21 kts 359°
2026-05-08 19:27 35.40237 -97.59063 1298 ft 21 kts 360°
2026-05-08 19:27 35.40388 -97.59064 1296 ft 22 kts
2026-05-08 19:27 35.40500 -97.59031 1299 ft 14 kts 53°
2026-05-08 19:28 35.40505 -97.58926 1301 ft 12 kts 90°
2026-05-08 19:28 35.40467 -97.58896 1301 ft 0 kts 178°
2026-05-08 19:29 35.40326 -97.58895 1301 ft 55 kts 180°
2026-05-08 19:30 35.39704 -97.58895 1295 ft 120 kts 180°
2026-05-08 19:30 35.38706 -97.58902 1411 ft 158 kts 183°
2026-05-08 19:30 35.37598 -97.58881 2053 ft 159 kts 184°
2026-05-08 19:30 35.36507 -97.58660 2770 ft 163 kts 159°
2026-05-08 19:31 35.35661 -97.57662 3272 ft 187 kts 119°
2026-05-08 19:31 35.35496 -97.55952 3604 ft 219 kts 91°
2026-05-08 19:31 35.35610 -97.53996 4005 ft 240 kts 86°
2026-05-08 19:31 35.35776 -97.51866 4473 ft 261 kts 85°
2026-05-08 19:32 35.35963 -97.49558 5001 ft 283 kts 85°
2026-05-08 19:32 35.36155 -97.47120 5858 ft 291 kts 85°
2026-05-08 19:32 35.36341 -97.44629 6735 ft 296 kts 86°
2026-05-08 19:32 35.36518 -97.42095 7613 ft 301 kts 85°
2026-05-08 19:33 35.36691 -97.39519 8520 ft 305 kts 85°
2026-05-08 19:33 35.36862 -97.36916 9470 ft 308 kts 85°
2026-05-08 19:33 35.37036 -97.34274 10208 ft 319 kts 85°
2026-05-08 19:33 35.37221 -97.31464 10563 ft 341 kts 85°
2026-05-08 19:34 35.37412 -97.28515 11202 ft 352 kts 85°
2026-05-08 19:34 35.37603 -97.25495 11948 ft 359 kts 85°
2026-05-08 19:34 35.37794 -97.22416 12699 ft 365 kts 85°
2026-05-08 19:34 35.37988 -97.19288 13452 ft 371 kts 85°
2026-05-08 19:35 35.38188 -97.16102 14114 ft 378 kts 85°
2026-05-08 19:35 35.38393 -97.12869 14767 ft 383 kts 85°
2026-05-08 19:35 35.38601 -97.09583 15421 ft 389 kts 85°
2026-05-08 19:35 35.38811 -97.06255 16054 ft 395 kts 85°
2026-05-08 19:36 35.39024 -97.02881 16691 ft 400 kts 85°
2026-05-08 19:36 35.39235 -96.99459 17337 ft 405 kts 85°
2026-05-08 19:36 35.39447 -96.95994 17973 ft 410 kts 85°
2026-05-08 19:36 35.39661 -96.92484 18555 ft 415 kts 85°
2026-05-08 19:37 35.39896 -96.88943 19155 ft 418 kts 84°
2026-05-08 19:37 35.40174 -96.85379 19762 ft 422 kts 83°
2026-05-08 19:37 35.40483 -96.81793 20390 ft 424 kts 83°
2026-05-08 19:37 35.40806 -96.78185 21007 ft 427 kts 83°
2026-05-08 19:38 35.41129 -96.74551 21606 ft 431 kts 83°
2026-05-08 19:38 35.41444 -96.70887 22195 ft 434 kts 83°
2026-05-08 19:38 35.41751 -96.67189 22776 ft 437 kts 84°
2026-05-08 19:38 35.42052 -96.63465 23358 ft 441 kts 84°
2026-05-08 19:39 35.42351 -96.59710 23842 ft 444 kts 84°
2026-05-08 19:39 35.42649 -96.55927 24295 ft 448 kts 84°
2026-05-08 19:39 35.42948 -96.52108 24748 ft 451 kts 84°
2026-05-08 19:39 35.43248 -96.48266 25178 ft 455 kts 84°
2026-05-08 19:40 35.43552 -96.44390 25591 ft 459 kts 85°
2026-05-08 19:40 35.43860 -96.40474 25967 ft 464 kts 85°
2026-05-08 19:40 35.44172 -96.36519 26380 ft 467 kts 85°
2026-05-08 19:40 35.44486 -96.32539 26790 ft 471 kts 85°
2026-05-08 19:41 35.44803 -96.28530 27188 ft 474 kts 85°
2026-05-08 19:41 35.45119 -96.24491 27586 ft 477 kts 85°
2026-05-08 19:41 35.45434 -96.20424 27990 ft 481 kts 85°
2026-05-08 19:41 35.45752 -96.16326 28384 ft 484 kts 85°
2026-05-08 19:42 35.46066 -96.12205 28761 ft 488 kts 85°
2026-05-08 19:42 35.46379 -96.08045 29142 ft 491 kts 86°
2026-05-08 19:42 35.46713 -96.03854 29471 ft 496 kts 85°
2026-05-08 19:42 35.47107 -95.99635 29831 ft 500 kts 84°
2026-05-08 19:43 35.47542 -95.95390 30153 ft 503 kts 84°
2026-05-08 19:43 35.47996 -95.91120 30452 ft 506 kts 83°
2026-05-08 19:43 35.48451 -95.86829 30752 ft 509 kts 84°
2026-05-08 19:43 35.48901 -95.82505 31047 ft 512 kts 84°
2026-05-08 19:44 35.49339 -95.78153 31344 ft 515 kts 84°
2026-05-08 19:44 35.49763 -95.73781 31644 ft 517 kts 84°
2026-05-08 19:44 35.50180 -95.69396 32043 ft 517 kts 85°
2026-05-08 19:44 35.50592 -95.65009 32406 ft 518 kts 85°
2026-05-08 19:45 35.51006 -95.60614 32798 ft 519 kts 85°
2026-05-08 19:45 35.51424 -95.56216 33180 ft 519 kts 85°
2026-05-08 19:45 35.51849 -95.51801 33560 ft 520 kts 85°
2026-05-08 19:45 35.52274 -95.47391 33947 ft 521 kts 85°
2026-05-08 19:46 35.52696 -95.42979 34263 ft 521 kts 85°
2026-05-08 19:46 35.53116 -95.38555 34558 ft 522 kts 85°
2026-05-08 19:46 35.53946 -95.29677 35103 ft 525 kts 85°
2026-05-08 19:47 35.54355 -95.25220 35345 ft 526 kts 86°
2026-05-08 19:47 35.54765 -95.20747 35616 ft 527 kts 86°
2026-05-08 19:47 35.55175 -95.16274 35880 ft 528 kts 86°
2026-05-08 19:47 35.55588 -95.11783 36153 ft 529 kts 86°
2026-05-08 19:48 35.56004 -95.07285 36409 ft 530 kts 85°
2026-05-08 19:48 35.56421 -95.02789 36665 ft 530 kts 86°
2026-05-08 19:48 35.56838 -94.98281 36889 ft 532 kts 86°
2026-05-08 19:48 35.57249 -94.93780 36922 ft 529 kts 86°
2026-05-08 19:49 35.58054 -94.84802 36929 ft 528 kts 86°
2026-05-08 19:49 35.58843 -94.75836 36930 ft 528 kts 86°
2026-05-08 19:50 35.59636 -94.66875 36946 ft 528 kts 86°
2026-05-08 19:50 35.60294 -94.59416 36945 ft 528 kts 86°
2026-05-08 19:51 35.61082 -94.50445 36944 ft 528 kts 86°
2026-05-08 19:51 35.61860 -94.41467 36944 ft 529 kts 87°
2026-05-08 19:52 35.62622 -94.32479 36942 ft 529 kts 86°
2026-05-08 19:52 35.63381 -94.23486 36947 ft 529 kts 86°
2026-05-08 19:53 35.64144 -94.14481 36931 ft 529 kts 87°
2026-05-08 19:53 35.64897 -94.05471 36933 ft 530 kts 87°
2026-05-08 19:54 35.65639 -93.96443 36945 ft 531 kts 87°
2026-05-08 19:54 35.66380 -93.87411 36948 ft 531 kts 87°
2026-05-08 19:55 35.67114 -93.78368 36955 ft 531 kts 87°
2026-05-08 19:55 35.67842 -93.69328 36952 ft 532 kts 87°
2026-05-08 19:56 35.68557 -93.60274 36954 ft 532 kts 87°
2026-05-08 19:56 35.69266 -93.51213 36955 ft 532 kts 87°
2026-05-08 19:57 35.69969 -93.42159 36960 ft 532 kts 88°
2026-05-08 19:57 35.70668 -93.33110 36959 ft 531 kts 87°
2026-05-08 19:58 35.71363 -93.24059 36979 ft 532 kts 88°
2026-05-08 19:58 35.72051 -93.15000 36963 ft 532 kts 88°
2026-05-08 19:59 35.72736 -93.05944 36953 ft 531 kts 88°
2026-05-08 19:59 35.73406 -92.96882 36947 ft 532 kts 88°
2026-05-08 20:00 35.74065 -92.87812 36941 ft 532 kts 88°
2026-05-08 20:00 35.74729 -92.78740 36949 ft 532 kts 88°
2026-05-08 20:01 35.75376 -92.69659 36943 ft 532 kts 88°
2026-05-08 20:01 35.76013 -92.60578 36936 ft 533 kts 88°
2026-05-08 20:02 35.76653 -92.51474 36938 ft 534 kts 88°
2026-05-08 20:02 35.77287 -92.42370 36944 ft 534 kts 88°
2026-05-08 20:03 35.77915 -92.33269 36952 ft 534 kts 88°
2026-05-08 20:03 35.78535 -92.24164 36947 ft 533 kts 89°
2026-05-08 20:04 35.79150 -92.15051 36956 ft 534 kts 89°
2026-05-08 20:04 35.79764 -92.05937 36960 ft 534 kts 89°
2026-05-08 20:05 35.80371 -91.96820 36962 ft 534 kts 89°
2026-05-08 20:05 35.80964 -91.87704 36948 ft 533 kts 89°
2026-05-08 20:06 35.81544 -91.78612 36949 ft 533 kts 89°
2026-05-08 20:06 35.82059 -91.69497 36950 ft 533 kts 91°
2026-05-08 20:07 35.82332 -91.60378 36951 ft 532 kts 92°
2026-05-08 20:07 35.82497 -91.51264 36951 ft 532 kts 92°
2026-05-08 20:08 35.82694 -91.42191 36954 ft 534 kts 92°
2026-05-08 20:08 35.82945 -91.33041 36969 ft 535 kts 92°
2026-05-08 20:09 35.83203 -91.23881 36981 ft 535 kts 92°
2026-05-08 20:09 35.83432 -91.14721 36998 ft 535 kts 92°
2026-05-08 20:10 35.83631 -91.05552 36989 ft 535 kts 92°
2026-05-08 20:10 35.83833 -90.96372 36988 ft 536 kts 92°
2026-05-08 20:11 35.84039 -90.87183 36965 ft 536 kts 92°
2026-05-08 20:11 35.84232 -90.77995 36960 ft 537 kts 92°
2026-05-08 20:12 35.84424 -90.68789 36941 ft 538 kts 92°
2026-05-08 20:12 35.84604 -90.59570 36942 ft 539 kts 93°
2026-05-08 20:13 35.84780 -90.50335 36948 ft 539 kts 93°
2026-05-08 20:13 35.84947 -90.41091 36957 ft 539 kts 93°
2026-05-08 20:14 35.85107 -90.31843 36954 ft 540 kts 93°
2026-05-08 20:14 35.85264 -90.22576 36965 ft 541 kts 93°
2026-05-08 20:15 35.85415 -90.13297 36973 ft 542 kts 93°
2026-05-08 20:15 35.85554 -90.04002 36978 ft 542 kts 93°
2026-05-08 20:16 35.85684 -89.94705 36976 ft 543 kts 93°
2026-05-08 20:16 35.85813 -89.85388 36972 ft 544 kts 94°
2026-05-08 20:17 35.85931 -89.76059 36936 ft 545 kts 94°
2026-05-08 20:17 35.86038 -89.66710 36951 ft 546 kts 94°
2026-05-08 20:18 35.86147 -89.57356 36985 ft 546 kts 94°
2026-05-08 20:18 35.86255 -89.47985 36991 ft 546 kts 94°
2026-05-08 20:19 35.86345 -89.38619 36993 ft 546 kts 94°
2026-05-08 20:19 35.86426 -89.29252 36995 ft 546 kts 94°
2026-05-08 20:20 35.86505 -89.19893 36975 ft 546 kts 94°
2026-05-08 20:20 35.86569 -89.10524 36969 ft 547 kts 94°
2026-05-08 20:21 35.86631 -89.01147 36973 ft 547 kts 94°
2026-05-08 20:21 35.86686 -88.91751 36975 ft 548 kts 94°
2026-05-08 20:22 35.86740 -88.82360 36967 ft 548 kts 94°
2026-05-08 20:22 35.86776 -88.74542 36969 ft 549 kts 95°
2026-05-08 20:23 35.86813 -88.63527 36966 ft 550 kts 95°
2026-05-08 20:23 35.86836 -88.54093 36970 ft 551 kts 95°
2026-05-08 20:24 35.86846 -88.44641 36965 ft 551 kts 95°
2026-05-08 20:24 35.86861 -88.35182 36966 ft 552 kts 95°
2026-05-08 20:25 35.86872 -88.25698 36985 ft 553 kts 95°
2026-05-08 20:25 35.86868 -88.16208 36999 ft 554 kts 95°
2026-05-08 20:26 35.86852 -88.06712 36992 ft 554 kts 95°
2026-05-08 20:26 35.86822 -87.97199 36999 ft 555 kts 95°
2026-05-08 20:27 35.86785 -87.87679 37005 ft 555 kts 95°
2026-05-08 20:27 35.86752 -87.78161 37011 ft 555 kts 95°
2026-05-08 20:28 35.86722 -87.68643 37019 ft 556 kts 95°
2026-05-08 20:28 35.86678 -87.59116 37010 ft 556 kts 95°
2026-05-08 20:29 35.86621 -87.49591 37008 ft 556 kts 95°
2026-05-08 20:29 35.86564 -87.40060 37007 ft 556 kts 95°
2026-05-08 20:30 35.86508 -87.32132 37013 ft 556 kts 95°
2026-05-08 20:30 35.86428 -87.22592 37004 ft 557 kts 96°
2026-05-08 20:31 35.86343 -87.13031 37007 ft 558 kts 96°
2026-05-08 20:31 35.86247 -87.03483 36999 ft 558 kts 96°
2026-05-08 20:32 35.86148 -86.93917 36990 ft 558 kts 96°
2026-05-08 20:32 35.86038 -86.84345 36991 ft 559 kts 96°
2026-05-08 20:33 35.85922 -86.74754 37009 ft 559 kts 96°
2026-05-08 20:33 35.85792 -86.65159 37012 ft 560 kts 96°
2026-05-08 20:34 35.85654 -86.55556 37009 ft 560 kts 96°
2026-05-08 20:35 35.85452 -86.41127 37006 ft 562 kts 96°
2026-05-08 20:35 35.85302 -86.31500 37014 ft 562 kts 96°
2026-05-08 20:36 35.85145 -86.21861 37025 ft 563 kts 96°
2026-05-08 20:36 35.84979 -86.12216 37004 ft 563 kts 96°
2026-05-08 20:37 35.84797 -86.02570 36993 ft 563 kts 96°
2026-05-08 20:37 35.84611 -85.92911 36989 ft 564 kts 96°
2026-05-08 20:38 35.84426 -85.83254 36985 ft 564 kts 96°
2026-05-08 20:38 35.84228 -85.73596 36989 ft 564 kts 96°
2026-05-08 20:39 35.84021 -85.63933 36997 ft 564 kts 96°
2026-05-08 20:39 35.83807 -85.54259 37007 ft 564 kts 97°
2026-05-08 20:40 35.83585 -85.44598 37019 ft 564 kts 97°
2026-05-08 20:40 35.83359 -85.34922 37012 ft 565 kts 97°
2026-05-08 20:41 35.83119 -85.25233 37012 ft 566 kts 97°
2026-05-08 20:41 35.82875 -85.15525 37011 ft 567 kts 97°
2026-05-08 20:42 35.82623 -85.05823 37014 ft 567 kts 97°
2026-05-08 20:42 35.82360 -84.96107 37004 ft 568 kts 97°
2026-05-08 20:43 35.82086 -84.86377 37008 ft 569 kts 97°
2026-05-08 20:43 35.81807 -84.76631 37010 ft 570 kts 97°
2026-05-08 20:44 35.81515 -84.66874 37016 ft 570 kts 96°
2026-05-08 20:44 35.81971 -84.57065 37011 ft 575 kts 87°
2026-05-08 20:45 35.82683 -84.47240 37012 ft 576 kts 87°
2026-05-08 20:45 35.83377 -84.37405 37018 ft 576 kts 87°
2026-05-08 20:46 35.84059 -84.27553 37013 ft 577 kts 87°
2026-05-08 20:46 35.84736 -84.17701 37007 ft 577 kts 87°
2026-05-08 20:47 35.85406 -84.07838 37007 ft 578 kts 87°
2026-05-08 20:47 35.86069 -83.97957 37005 ft 578 kts 87°
2026-05-08 20:48 35.86726 -83.88082 37003 ft 579 kts 87°
2026-05-08 20:48 35.87366 -83.78203 37006 ft 579 kts 87°
2026-05-08 20:49 35.88000 -83.68288 37012 ft 579 kts 87°
2026-05-08 20:49 35.88632 -83.58382 37019 ft 580 kts 87°
2026-05-08 20:50 35.88979 -83.48478 37003 ft 576 kts 98°
2026-05-08 20:50 35.88483 -83.43568 36819 ft 576 kts 109°
2026-05-08 20:50 35.87601 -83.38763 36574 ft 576 kts 111°
2026-05-08 20:50 35.86656 -83.33994 36197 ft 570 kts 112°
2026-05-08 20:51 35.85645 -83.29284 35683 ft 566 kts 114°
2026-05-08 20:51 35.84581 -83.24638 35184 ft 562 kts 114°
2026-05-08 20:51 35.83491 -83.20024 34676 ft 559 kts 115°
2026-05-08 20:51 35.82405 -83.15432 34161 ft 558 kts 114°
2026-05-08 20:52 35.81339 -83.10836 33595 ft 557 kts 113°
2026-05-08 20:52 35.80303 -83.06246 33106 ft 554 kts 112°
2026-05-08 20:52 35.79296 -83.01679 32586 ft 551 kts 111°
2026-05-08 20:52 35.78306 -82.97135 32088 ft 548 kts 111°
2026-05-08 20:53 35.77318 -82.92615 31589 ft 544 kts 111°
2026-05-08 20:53 35.76331 -82.88137 31102 ft 540 kts 111°
2026-05-08 20:53 35.75341 -82.83685 30617 ft 538 kts 110°
2026-05-08 20:53 35.74351 -82.79264 30146 ft 534 kts 111°
2026-05-08 20:54 35.73360 -82.74884 29635 ft 529 kts 110°
2026-05-08 20:54 35.72376 -82.70551 29208 ft 522 kts 110°
2026-05-08 20:54 35.71403 -82.66269 28767 ft 517 kts 110°
2026-05-08 20:54 35.70440 -82.62034 28340 ft 511 kts 110°
2026-05-08 20:55 35.69484 -82.57853 27904 ft 505 kts 110°
2026-05-08 20:55 35.68535 -82.53715 27469 ft 500 kts 110°
2026-05-08 20:55 35.67596 -82.49616 27024 ft 496 kts 109°
2026-05-08 20:55 35.66664 -82.45551 26576 ft 492 kts 109°
2026-05-08 20:56 35.65743 -82.41531 26298 ft 482 kts 109°
2026-05-08 20:56 35.64845 -82.37610 26103 ft 472 kts 110°
2026-05-08 20:56 35.63961 -82.33766 25573 ft 464 kts 109°
2026-05-08 20:56 35.63085 -82.29978 25025 ft 457 kts 109°
2026-05-08 20:57 35.62221 -82.26250 24503 ft 450 kts 109°
2026-05-08 20:57 35.61373 -82.22578 24025 ft 444 kts 109°
2026-05-08 20:57 35.60535 -82.18958 23706 ft 438 kts 108°
2026-05-08 20:57 35.59704 -82.15378 23275 ft 434 kts 109°
2026-05-08 20:58 35.58876 -82.11833 22758 ft 428 kts 109°
2026-05-08 20:58 35.58057 -82.08340 22175 ft 423 kts 109°
2026-05-08 20:58 35.57119 -82.04960 21657 ft 415 kts 117°
2026-05-08 20:58 35.55949 -82.01731 21229 ft 412 kts 118°
2026-05-08 20:59 35.54790 -81.98530 20818 ft 409 kts 118°
2026-05-08 20:59 35.53640 -81.95349 20413 ft 406 kts 117°
2026-05-08 20:59 35.52503 -81.92195 19992 ft 403 kts 117°
2026-05-08 20:59 35.51371 -81.89059 19606 ft 400 kts 117°
2026-05-08 21:00 35.50248 -81.85948 19201 ft 397 kts 117°
2026-05-08 21:00 35.49146 -81.82899 18812 ft 396 kts 117°
2026-05-08 21:00 35.48016 -81.79783 18405 ft 394 kts 117°
2026-05-08 21:00 35.46918 -81.76759 17957 ft 391 kts 117°
2026-05-08 21:01 35.45815 -81.73728 17586 ft 387 kts 117°
2026-05-08 21:01 35.44721 -81.70726 17200 ft 383 kts 117°
2026-05-08 21:01 35.43670 -81.67726 16774 ft 383 kts 112°
2026-05-08 21:01 35.42827 -81.64670 16598 ft 374 kts 111°
2026-05-08 21:02 35.41992 -81.61671 16260 ft 370 kts 111°
2026-05-08 21:02 35.41152 -81.58700 15892 ft 368 kts 111°
2026-05-08 21:02 35.40313 -81.55756 15507 ft 365 kts 111°
2026-05-08 21:02 35.39478 -81.52835 15099 ft 361 kts 111°
2026-05-08 21:03 35.38651 -81.49942 14727 ft 358 kts 111°
2026-05-08 21:03 35.37836 -81.47081 14377 ft 353 kts 111°
2026-05-08 21:03 35.37033 -81.44257 14009 ft 350 kts 111°
2026-05-08 21:03 35.36238 -81.41454 13575 ft 348 kts 111°
2026-05-08 21:04 35.35447 -81.38662 13180 ft 344 kts 111°
2026-05-08 21:04 35.34665 -81.35911 12780 ft 340 kts 111°
2026-05-08 21:04 35.33892 -81.33191 12431 ft 336 kts 111°
2026-05-08 21:04 35.33129 -81.30509 12070 ft 331 kts 111°
2026-05-08 21:05 35.32375 -81.27864 11706 ft 328 kts 111°
2026-05-08 21:05 35.31626 -81.25241 11352 ft 324 kts 111°
2026-05-08 21:05 35.30882 -81.22639 10994 ft 323 kts 111°
2026-05-08 21:05 35.30144 -81.20052 10783 ft 322 kts 111°
2026-05-08 21:06 35.29405 -81.17469 10577 ft 321 kts 111°
2026-05-08 21:06 35.28669 -81.14898 10396 ft 316 kts 111°
2026-05-08 21:06 35.28044 -81.12369 10251 ft 307 kts 98°
2026-05-08 21:06 35.28162 -81.09782 9987 ft 307 kts 72°
2026-05-08 21:07 35.29133 -81.07495 9474 ft 304 kts 46°
2026-05-08 21:07 35.30787 -81.05955 8959 ft 298 kts 20°
2026-05-08 21:07 35.32787 -81.05434 8347 ft 295 kts 357°
2026-05-08 21:07 35.34849 -81.05565 7718 ft 299 kts 353°
2026-05-08 21:08 35.36927 -81.05801 7089 ft 299 kts 352°
2026-05-08 21:08 35.38972 -81.06069 6484 ft 293 kts 352°
2026-05-08 21:08 35.40974 -81.06359 5843 ft 287 kts 353°
2026-05-08 21:08 35.42943 -81.06193 5218 ft 284 kts 17°
2026-05-08 21:09 35.44614 -81.04988 4582 ft 279 kts 46°
2026-05-08 21:09 35.45367 -81.03739 4200 ft 274 kts 66°
2026-05-08 21:09 35.45733 -81.01575 4015 ft 249 kts 96°
2026-05-08 21:09 35.45173 -80.99739 4009 ft 220 kts 131°
2026-05-08 21:10 35.43972 -80.98705 4010 ft 205 kts 163°
2026-05-08 21:10 35.42568 -80.98470 4023 ft 205 kts 178°
2026-05-08 21:10 35.41171 -80.98353 4008 ft 204 kts 178°
2026-05-08 21:10 35.39752 -80.98230 4002 ft 205 kts 178°
2026-05-08 21:11 35.38330 -80.98107 3818 ft 205 kts 177°
2026-05-08 21:11 35.36912 -80.97984 3574 ft 204 kts 177°
2026-05-08 21:11 35.35495 -80.97861 3312 ft 204 kts 177°
2026-05-08 21:11 35.34083 -80.97739 3037 ft 203 kts 176°
2026-05-08 21:12 35.32677 -80.97617 2770 ft 203 kts 177°
2026-05-08 21:12 35.31265 -80.97495 2499 ft 202 kts 178°
2026-05-08 21:12 35.29895 -80.97377 2269 ft 191 kts 177°
2026-05-08 21:12 35.28591 -80.97264 1981 ft 184 kts 177°
2026-05-08 21:13 35.27372 -80.97159 1754 ft 165 kts 176°
2026-05-08 21:13 35.26297 -80.97066 1520 ft 146 kts 176°
2026-05-08 21:13 35.25334 -80.96983 1335 ft 134 kts 176°
2026-05-08 21:13 35.24416 -80.96904 1156 ft 130 kts 177°
2026-05-08 21:14 35.23520 -80.96827 991 ft 129 kts 178°
2026-05-08 21:14 35.22622 -80.96747 785 ft 129 kts 178°
2026-05-08 21:14 35.21793 -80.96677 719 ft 105 kts 176°
2026-05-08 21:14 35.21232 -80.96631 718 ft 57 kts 176°
2026-05-08 21:15 35.20865 -80.96567 725 ft 51 kts 158°
2026-05-08 21:15 35.20737 -80.96478 726 ft 11 kts 138°
2026-05-08 21:15 35.20724 -80.96390 725 ft 12 kts 86°
2026-05-08 21:15 35.20729 -80.96286 725 ft 13 kts 86°
2026-05-08 21:16 35.20737 -80.96171 725 ft 14 kts 83°
2026-05-08 21:16 35.20782 -80.96065 726 ft 15 kts 39°
2026-05-08 21:16 35.20868 -80.95987 724 ft 16 kts 36°
2026-05-08 21:16 35.20963 -80.95903 724 ft 18 kts 36°
2026-05-08 21:17 35.21064 -80.95810 725 ft 19 kts 37°
2026-05-08 21:17 35.21126 -80.95674 722 ft 19 kts 84°
2026-05-08 21:17 35.21133 -80.95509 722 ft 20 kts 86°
2026-05-08 21:17 35.21142 -80.95337 724 ft 21 kts 86°
2026-05-08 21:18 35.21153 -80.95151 719 ft 23 kts 86°
2026-05-08 21:18 35.21163 -80.94989 722 ft 14 kts 85°
2026-05-08 21:18 35.21213 -80.94896 723 ft 15 kts 11°
2026-05-08 21:18 35.21319 -80.94904 722 ft 16 kts 356°
2026-05-08 21:19 35.21437 -80.94915 720 ft 18 kts 355°
2026-05-08 21:19 35.21565 -80.94925 722 ft 19 kts 355°
2026-05-08 21:19 35.21702 -80.94939 719 ft 21 kts 354°
2026-05-08 21:19 35.21849 -80.94954 719 ft 22 kts 357°
2026-05-08 21:20 35.21876 -80.94900 719 ft 8 kts 90°
2026-05-08 21:20 35.21889 -80.94808 718 ft 13 kts 51°
2026-05-08 21:20 35.21974 -80.94795 719 ft 9 kts
2026-05-08 21:20 35.21983 -80.94795 719 ft 0 kts